FW7079 Weather Reports


Display with metric or nautical units.
time (UTC)temp
F
wind
direction
speed
MPH
gust
MPH
rain 1hr
in
rain 24hr
in
rain mn
in
humidity
%
barometer
mb
20260504023057 72 159 2.0 5.0 0.00 0.00 0.00 42 1012.1
20260504021603 73 136 1.0 5.0 0.00 0.00 0.00 41 1011.9
20260504020057 73 142 2.0 7.0 0.00 0.00 0.00 40 1011.9
20260504014556 74 132 1.0 4.0 0.00 0.00 0.00 39 1011.7
20260504013050 75 142 1.0 6.0 0.00 0.00 0.00 37 1011.7
20260504011555 76 169 2.0 7.0 0.00 0.00 0.00 36 1011.7
20260504010050 77 207 1.0 1.0 0.00 0.00 0.00 35 1011.8
20260504004550 78 142 3.0 9.0 0.00 0.00 0.00 34 1011.8
20260504003051 78 132 2.0 9.0 0.00 0.00 0.00 35 1011.8
20260504001553 79 131 3.0 11.0 0.00 0.00 0.00 34 1011.9
20260504000129 80 0.0 0.0 0.00 0.00 0.00 34 1012.0
20260503234556 80 132 3.0 10.0 0.00 0.00 0.00 33 1012.2
20260503233049 80 180 5.0 13.0 0.00 0.00 0.00 32 1012.2
20260503231552 81 107 2.0 10.0 0.00 0.00 0.00 32 1012.2
20260503230054 81 126 4.0 13.0 0.00 0.00 0.00 30 1012.3
20260503224553 82 132 4.0 12.0 0.00 0.00 0.00 31 1012.2
20260503223051 82 153 5.0 13.0 0.00 0.00 0.00 30 1012.3
20260503221557 82 169 5.0 10.0 0.00 0.00 0.00 32 1012.6
20260503220057 83 142 3.0 10.0 0.00 0.00 0.00 33 1012.8
20260503214550 83 142 4.0 12.0 0.00 0.00 0.00 30 1013.0
20260503213053 83 165 3.0 12.0 0.00 0.00 0.00 28 1013.2
20260503211553 83 148 3.0 10.0 0.00 0.00 0.00 31 1013.3
20260503210052 84 165 3.0 11.0 0.00 0.00 0.00 33 1013.7
20260503204555 84 175 2.0 13.0 0.00 0.00 0.00 31 1013.8
20260503203101 83 115 6.0 15.0 0.00 0.00 0.00 30 1014.1
20260503201559 84 126 4.0 14.0 0.00 0.00 0.00 30 1014.3
20260503200051 85 0.0 0.0 0.00 0.00 0.00 29 1014.5
20260503194554 84 0.0 0.0 0.00 0.00 0.00 29 1014.9
20260503193052 85 0.0 0.0 0.00 0.00 0.00 28 1015.2
20260503191551 84 0.0 0.0 0.00 0.00 0.00 29 1015.5
20260503190052 84 181 4.0 13.0 0.00 0.00 0.00 28 1015.5
20260503184611 84 207 3.0 13.0 0.00 0.00 0.00 28 1015.5
20260503183100 84 136 3.0 13.0 0.00 0.00 0.00 27 1015.8
20260503181555 83 142 6.0 11.0 0.00 0.00 0.00 30 1016.0
20260503180056 84 136 2.0 8.0 0.00 0.00 0.00 38 1016.3
20260503174558 82 0.0 0.0 0.00 0.00 0.00 39 1016.6
20260503173057 81 0.0 0.0 0.00 0.00 0.00 39 1016.8
20260503171610 81 0.0 0.0 0.00 0.00 0.00 41 1017.1
20260503090105 44 0 0.0 0.0 0.00 0.00 0.00 91 1018.9
20260503081552 44 0 0.0 0.0 0.00 0.00 0.00 90 1019.2
20260503080107 44 0 0.0 0.0 0.00 0.00 0.00 90 1019.3
20260503071609 45 0 0.0 0.0 0.00 0.00 0.00 89 1019.7
20260503060104 46 0 0.0 0.0 0.00 0.00 0.00 88 1020.1
20260503054602 47 0 0.0 0.0 0.00 0.00 0.00 88 1020.1
20260503053055 47 0 0.0 0.0 0.00 0.00 0.00 88 1019.9
20260503051553 47 0 0.0 0.0 0.00 0.00 0.00 87 1020.0
20260503050055 48 0 0.0 0.0 0.00 0.00 0.00 87 1020.0
20260503044601 48 0 0.0 0.0 0.00 0.00 0.00 86 1019.7
20260503043056 49 0 0.0 0.0 0.00 0.00 0.00 85 1019.8
20260503041553 49 0 0.0 0.0 0.00 0.00 0.00 85 1019.8
20260503040058 50 0 0.0 0.0 0.00 0.00 0.00 84 1019.7
20260503034551 50 0 0.0 0.0 0.00 0.00 0.00 83 1019.7
20260503033052 51 0 0.0 0.0 0.00 0.00 0.00 82 1019.8
20260503031553 52 0 0.0 0.0 0.00 0.00 0.00 81 1019.7
20260503030100 53 0 0.0 0.0 0.00 0.00 0.00 80 1019.5
20260503024601 54 0 0.0 0.0 0.00 0.00 0.00 78 1019.5